Anderson, SC

10:52 AM EDT on August 29, 2016 (GMT -0400)
Anderson Regional

Weather History for KAND - November, 2013

Change the Weather History Date:

Saturday, November 30, 2013

  Actual Average Record
Temperature  
Mean Temperature 42 °F -  
Max Temperature 50 °F 57 °F 77 °F (1970)
Min Temperature 33 °F 36 °F 17 °F (1976)
Degree Days  
Heating Degree Days 24    
Moisture  
Dew Point 24 °F    
Average Humidity 53    
Maximum Humidity 70    
Minimum Humidity 32    
Precipitation  
Precipitation 0.00 in - - ()
Sea Level Pressure  
Sea Level Pressure 30.51 in    
Wind  
Wind Speed 7 mph (NE)    
Max Wind Speed 15 mph    
Max Gust Speed 20 mph    
Visibility 10 miles    
Events      
Averages and records for this station are not official NWS values.
T = Trace of Precipitation, MM = Missing Value Source: NWS Daily Summary

Daily Weather History Graph

Daily Weather History Graph

Search for Another Location

Airport or City:

Trip Planner

Search our weather history database for the weather conditions in past years. The results will help you decide how hot, cold, wet, or windy it might be!

Date:

Astronomy

Nov. 30, 2013 Rise Set
Actual Time 7:18 AM EST 5:20 PM EST
Civil Twilight 6:51 AM EST 5:48 PM EST
Nautical Twilight 6:20 AM EST 6:19 PM EST
Astronomical Twilight 5:49 AM EST 6:49 PM EST
Moon 4:33 AM EST (11/30) 3:39 PM EST (11/30)
Length of Visible Light 10h 56m
Length of Day
10h 01m
Waning Crescent, 7% of the Moon is Illuminated
Nov 30
Waning Crescent
Dec 2
New
Dec 9
First Quarter
Dec 17
Full
Dec 25
Last Quarter

Hourly Weather History & Observations

Time (EST) Temp. Windchill Dew Point Humidity Pressure Visibility Wind Dir Wind Speed Gust Speed Precip Events Conditions
12:56 AM 37.9 °F 32.1 °F 26.1 °F 62% 30.56 in 10.0 mi NE 8.1 mph - N/A   Clear
1:56 AM 37.0 °F 31.0 °F 25.0 °F 62% 30.56 in 10.0 mi ENE 8.1 mph - N/A   Clear
2:56 AM 37.0 °F 31.0 °F 25.0 °F 62% 30.57 in 10.0 mi NE 8.1 mph - N/A   Clear
3:56 AM 35.1 °F 28.6 °F 25.0 °F 67% 30.57 in 10.0 mi NE 8.1 mph - N/A   Clear
4:56 AM 35.1 °F 28.6 °F 25.0 °F 67% 30.58 in 10.0 mi NE 8.1 mph - N/A   Clear
5:56 AM 35.1 °F 28.6 °F 24.1 °F 64% 30.59 in 10.0 mi NE 8.1 mph - N/A   Clear
6:56 AM 33.1 °F 26.1 °F 24.1 °F 70% 30.61 in 10.0 mi NE 8.1 mph - N/A   Clear
7:56 AM 34.0 °F 26.6 °F 24.1 °F 67% 30.61 in 10.0 mi NE 9.2 mph - N/A   Clear
8:56 AM 37.0 °F 28.9 °F 24.1 °F 59% 30.61 in 10.0 mi ENE 12.7 mph 17.3 mph N/A   Clear
9:56 AM 39.0 °F 30.6 °F 21.9 °F 50% 30.61 in 10.0 mi NE 15.0 mph - N/A   Clear
10:56 AM 43.0 °F 36.4 °F 21.0 °F 42% 30.60 in 10.0 mi ENE 12.7 mph 19.6 mph N/A   Clear
11:56 AM 46.0 °F 40.6 °F 21.0 °F 37% 30.56 in 10.0 mi ENE 11.5 mph - N/A   Clear
12:56 PM 48.0 °F - 21.0 °F 34% 30.51 in 10.0 mi Variable 5.8 mph - N/A   Clear
1:56 PM 48.9 °F - 21.0 °F 33% 30.47 in 10.0 mi Variable 4.6 mph - N/A   Clear
2:56 PM 50.0 °F - 21.0 °F 32% 30.45 in 10.0 mi ENE 6.9 mph - N/A   Clear
3:56 PM 48.9 °F - 21.0 °F 33% 30.44 in 10.0 mi NE 5.8 mph - N/A   Clear
4:56 PM 46.0 °F 44.8 °F 21.9 °F 39% 30.43 in 10.0 mi East 3.5 mph - N/A   Mostly Cloudy
5:56 PM 44.1 °F - 23.0 °F 43% 30.42 in 10.0 mi Calm Calm - N/A   Mostly Cloudy
6:56 PM 39.9 °F - 24.1 °F 53% 30.41 in 10.0 mi Calm Calm - N/A   Clear
7:56 PM 39.0 °F - 25.0 °F 57% 30.41 in 10.0 mi Calm Calm - N/A   Partly Cloudy
8:56 PM 37.0 °F - 27.0 °F 67% 30.41 in 10.0 mi Calm Calm - N/A   Partly Cloudy
9:56 PM 39.0 °F 35.7 °F 25.0 °F 57% 30.40 in 10.0 mi North 4.6 mph - N/A   Overcast
10:56 PM 39.0 °F 35.7 °F 25.0 °F 57% 30.39 in 10.0 mi NNE 4.6 mph - N/A   Mostly Cloudy
11:56 PM 37.0 °F 34.5 °F 25.0 °F 62% 30.36 in 10.0 mi NE 3.5 mph - N/A   Partly Cloudy